Voltar ao catálogo

DELTA 1 DEB

AtivoLEO
NORAD 10346·DEBRIS·🇺🇸 United States

Lançado Jul 14, 1977 de Cape Canaveral Space Force Station

Loading…

Próximas Passagens (próximas 24 horas)

TLE

AtualizadoSource: Space-Track

Época: Sep 14, 2026, 14:20 UTC

1 10346U 77065DV  26257.59726079  .00000634  00000-0  25244-3 0  9999
2 10346  29.2204 343.6273 0696013 131.7674 234.4526 13.36946162348717

Acompanhe DELTA 1 DEB em tempo real com AllMySat

Download on the App Store